| time (UTC) | temp F | wind direction | speed MPH | gust MPH | rain 1hr in | rain 24hr in | rain mn in | humidity % | barometer mb |
| 20260507061127 | 62 | 223 | 0.0 | 0.0 | 0.03 | 0.24 | 0.07 | 89 | 966.7 |
| 20260507060629 | 62 | 223 | 0.0 | 0.0 | 0.03 | 0.24 | 0.07 | 89 | 966.9 |
| 20260507055627 | 62 | 223 | 0.0 | 0.0 | 0.03 | 0.24 | 0.07 | 89 | 967.2 |
| 20260507055129 | 62 | 223 | 0.0 | 3.0 | 0.03 | 0.24 | 0.07 | 89 | 967.1 |
| 20260507054627 | 62 | 223 | 1.0 | 6.0 | 0.03 | 0.24 | 0.07 | 89 | 967.3 |
| 20260507053624 | 63 | 239 | 4.0 | 8.0 | 0.04 | 0.24 | 0.07 | 89 | 967.6 |
| 20260507053123 | 63 | 237 | 2.0 | 7.0 | 0.05 | 0.24 | 0.07 | 89 | 968.0 |
| 20260507052124 | 63 | 166 | 0.0 | 0.0 | 0.05 | 0.22 | 0.05 | 89 | 968.1 |
| 20260507051625 | 63 | 166 | 0.0 | 0.0 | 0.04 | 0.21 | 0.04 | 89 | 968.2 |
| 20260507051123 | 63 | 166 | 0.0 | 0.0 | 0.04 | 0.21 | 0.04 | 90 | 968.0 |
| 20260507050624 | 63 | 166 | 0.0 | 0.0 | 0.04 | 0.21 | 0.04 | 89 | 968.1 |
| 20260507050124 | 63 | 167 | 0.0 | 0.0 | 0.04 | 0.21 | 0.04 | 89 | 968.3 |
| 20260507045624 | 63 | 167 | 0.0 | 0.0 | 0.04 | 0.21 | 0.04 | 90 | 968.4 |
| 20260507045120 | 63 | 167 | 0.0 | 0.0 | 0.04 | 0.21 | 0.04 | 90 | 968.3 |
| 20260507044619 | 63 | 167 | 0.0 | 4.0 | 0.04 | 0.21 | 0.04 | 90 | 968.2 |
| 20260507044120 | 63 | 167 | 0.0 | 4.0 | 0.03 | 0.20 | 0.03 | 90 | 968.1 |
| 20260507043621 | 63 | 257 | 0.0 | 1.0 | 0.03 | 0.20 | 0.03 | 90 | 968.3 |
| 20260507043120 | 63 | 257 | 0.0 | 1.0 | 0.02 | 0.19 | 0.02 | 90 | 968.8 |
| 20260507042120 | 63 | 257 | 0.0 | 0.0 | 0.00 | 0.17 | 0.00 | 90 | 968.6 |
| 20260507041619 | 63 | 257 | 0.0 | 0.0 | 0.00 | 0.17 | 0.00 | 90 | 968.7 |
| 20260507041120 | 63 | 257 | 0.0 | 0.0 | 0.00 | 0.17 | 0.00 | 90 | 968.5 |
| 20260507040618 | 64 | 257 | 0.0 | 0.0 | 0.00 | 0.17 | 0.00 | 90 | 967.9 |
| 20260507040118 | 64 | 257 | 0.0 | 0.0 | 0.00 | 0.17 | 0.00 | 90 | 968.1 |
| 20260507035618 | 64 | 257 | 0.0 | 0.0 | 0.00 | 0.17 | 0.17 | 90 | 968.1 |
| 20260507035118 | 64 | 257 | 0.0 | 0.0 | 0.00 | 0.17 | 0.17 | 90 | 968.3 |
| 20260507034617 | 64 | 257 | 0.0 | 0.0 | 0.01 | 0.17 | 0.17 | 90 | 968.2 |
| 20260507034118 | 64 | 257 | 0.0 | 3.0 | 0.02 | 0.17 | 0.17 | 90 | 968.2 |
| 20260507033615 | 64 | 257 | 0.0 | 4.0 | 0.02 | 0.17 | 0.17 | 90 | 968.0 |
| 20260507033114 | 64 | 261 | 0.0 | 4.0 | 0.02 | 0.17 | 0.17 | 90 | 967.5 |
| 20260507032614 | 64 | 178 | 1.0 | 7.0 | 0.03 | 0.17 | 0.17 | 90 | 967.5 |
| 20260507032115 | 65 | 178 | 2.0 | 8.0 | 0.03 | 0.17 | 0.17 | 90 | 967.6 |
| 20260507031615 | 65 | 195 | 1.0 | 8.0 | 0.03 | 0.17 | 0.17 | 90 | 967.8 |
| 20260507031114 | 65 | 216 | 2.0 | 8.0 | 0.04 | 0.17 | 0.17 | 90 | 967.6 |
| 20260507030614 | 65 | 185 | 2.0 | 8.0 | 0.04 | 0.17 | 0.17 | 90 | 967.2 |
| 20260507030111 | 65 | 178 | 2.0 | 8.0 | 0.04 | 0.17 | 0.17 | 90 | 966.9 |
| 20260507025611 | 65 | 195 | 2.0 | 8.0 | 0.05 | 0.17 | 0.17 | 90 | 966.9 |
| 20260507025113 | 65 | 232 | 2.0 | 9.0 | 0.05 | 0.17 | 0.17 | 90 | 967.5 |
| 20260507024613 | 65 | 219 | 1.0 | 9.0 | 0.04 | 0.16 | 0.16 | 90 | 968.0 |
| 20260507024112 | 65 | 147 | 0.0 | 4.0 | 0.04 | 0.15 | 0.16 | 90 | 968.3 |
| 20260507022613 | 65 | 236 | 0.0 | 0.0 | 0.03 | 0.14 | 0.14 | 90 | 968.8 |
| 20260507021612 | 65 | 222 | 0.0 | 0.0 | 0.03 | 0.14 | 0.14 | 90 | 968.7 |
| 20260507015611 | 66 | 274 | 0.0 | 0.0 | 0.02 | 0.12 | 0.12 | 91 | 968.5 |
| 20260507015112 | 66 | 274 | 0.0 | 0.0 | 0.03 | 0.12 | 0.12 | 91 | 968.7 |
| 20260507014611 | 66 | 274 | 0.0 | 0.0 | 0.03 | 0.12 | 0.12 | 91 | 968.5 |
| 20260507014111 | 66 | 274 | 0.0 | 0.0 | 0.03 | 0.11 | 0.11 | 91 | 968.7 |
| 20260507013109 | 66 | 227 | 0.0 | 0.0 | 0.03 | 0.11 | 0.11 | 91 | 968.5 |
| 20260507012610 | 66 | 227 | 0.0 | 0.0 | 0.03 | 0.11 | 0.11 | 92 | 968.4 |
| 20260507012110 | 66 | 227 | 0.0 | 0.0 | 0.03 | 0.11 | 0.11 | 92 | 967.8 |
| 20260507011610 | 66 | 227 | 0.0 | 2.0 | 0.04 | 0.11 | 0.11 | 92 | 967.9 |
| 20260507010606 | 66 | 227 | 0.0 | 0.0 | 0.05 | 0.11 | 0.11 | 92 | 967.5 |
| 20260507010104 | 66 | 227 | 0.0 | 0.0 | 0.04 | 0.10 | 0.10 | 92 | 967.5 |
| 20260507005059 | 66 | 195 | 1.0 | 5.0 | 0.04 | 0.09 | 0.09 | 92 | 967.2 |
| 20260507004600 | 66 | 229 | 1.0 | 5.0 | 0.04 | 0.09 | 0.09 | 92 | 967.4 |
| 20260507004059 | 66 | 221 | 1.0 | 7.0 | 0.03 | 0.08 | 0.08 | 92 | 967.6 |
| 20260507003045 | 66 | 91 | 0.0 | 0.0 | 0.04 | 0.08 | 0.08 | 92 | 967.6 |
| 20260507002538 | 66 | 0 | 0.0 | 0.0 | 0.04 | 0.08 | 0.08 | 92 | 967.8 |
| 20260507002033 | 66 | 0 | 0.0 | 0.0 | 0.04 | 0.08 | 0.08 | 92 | 967.7 |
| 20260507001527 | 66 | 0 | 0.0 | 0.0 | 0.03 | 0.07 | 0.07 | 93 | 967.9 |
| 20260507001021 | 66 | 0 | 1.0 | 4.0 | 0.02 | 0.06 | 0.06 | 93 | 968.0 |
| 20260507000515 | 66 | 0 | 1.0 | 4.0 | 0.02 | 0.06 | 0.06 | 93 | 968.2 |
| 20260507000008 | 66 | 53 | 0.0 | 0.0 | 0.01 | 0.05 | 0.05 | 93 | 967.7 |
| 20260506235503 | 66 | 53 | 0.0 | 0.0 | 0.01 | 0.05 | 0.05 | 93 | 967.6 |
| 20260506233438 | 67 | 53 | 0.0 | 0.0 | 0.00 | 0.04 | 0.05 | 93 | 967.1 |
| 20260506232426 | 68 | 53 | 0.0 | 0.0 | 0.00 | 0.04 | 0.04 | 93 | 967.1 |
| 20260506231415 | 68 | 38 | 0.0 | 2.0 | 0.00 | 0.04 | 0.04 | 92 | 967.2 |
| 20260506230908 | 68 | 38 | 0.0 | 2.0 | 0.00 | 0.04 | 0.04 | 92 | 967.4 |
| 20260506230402 | 68 | 39 | 0.0 | 0.0 | 0.00 | 0.04 | 0.04 | 92 | 967.5 |
| 20260506225856 | 69 | 39 | 0.0 | 1.0 | 0.00 | 0.04 | 0.04 | 91 | 967.7 |
| 20260506225349 | 69 | 39 | 0.0 | 2.0 | 0.00 | 0.04 | 0.04 | 91 | 967.5 |
| 20260506224843 | 69 | 183 | 0.0 | 2.0 | 0.00 | 0.04 | 0.04 | 90 | 967.5 |
| 20260506224337 | 69 | 271 | 0.0 | 0.0 | 0.00 | 0.04 | 0.04 | 89 | 967.2 |
| 20260506223831 | 69 | 275 | 0.0 | 0.0 | 0.00 | 0.04 | 0.04 | 88 | 967.2 |
| 20260506223326 | 69 | 275 | 0.0 | 3.0 | 0.00 | 0.04 | 0.04 | 88 | 967.5 |
| 20260506222819 | 70 | 275 | 0.0 | 3.0 | 0.00 | 0.04 | 0.04 | 88 | 967.5 |
| 20260506220755 | 70 | 226 | 1.0 | 9.0 | 0.00 | 0.04 | 0.04 | 86 | 967.7 |
| 20260506220249 | 70 | 60 | 1.0 | 9.0 | 0.00 | 0.04 | 0.04 | 86 | 967.7 |
| 20260506215742 | 70 | 165 | 0.0 | 5.0 | 0.00 | 0.04 | 0.04 | 86 | 967.8 |
| 20260506214731 | 70 | 225 | 1.0 | 8.0 | 0.00 | 0.04 | 0.04 | 86 | 967.9 |
| 20260506213212 | 70 | 273 | 2.0 | 12.0 | 0.00 | 0.04 | 0.04 | 85 | 967.8 |
| 20260506212707 | 70 | 321 | 2.0 | 12.0 | 0.00 | 0.04 | 0.04 | 85 | 967.7 |
| 20260506212201 | 70 | 205 | 2.0 | 11.0 | 0.00 | 0.04 | 0.04 | 84 | 967.5 |
| 20260506211148 | 71 | 168 | 2.0 | 12.0 | 0.00 | 0.04 | 0.04 | 84 | 967.5 |
| 20260506210643 | 71 | 190 | 1.0 | 13.0 | 0.00 | 0.04 | 0.04 | 84 | 967.3 |
| 20260506210137 | 71 | 172 | 3.0 | 16.0 | 0.00 | 0.04 | 0.04 | 84 | 967.3 |
| 20260506205632 | 71 | 190 | 3.0 | 16.0 | 0.00 | 0.04 | 0.04 | 84 | 967.3 |
| 20260506205125 | 71 | 238 | 4.0 | 16.0 | 0.00 | 0.04 | 0.04 | 84 | 967.2 |
| 20260506204619 | 71 | 235 | 5.0 | 18.0 | 0.00 | 0.04 | 0.04 | 83 | 967.0 |
| 20260506204114 | 71 | 290 | 5.0 | 18.0 | 0.00 | 0.04 | 0.04 | 83 | 967.3 |
| 20260506203607 | 71 | 188 | 6.0 | 15.0 | 0.00 | 0.04 | 0.04 | 84 | 967.4 |
| 20260506203100 | 71 | 181 | 5.0 | 13.0 | 0.00 | 0.04 | 0.04 | 84 | 967.2 |
| 20260506202049 | 71 | 247 | 3.0 | 12.0 | 0.00 | 0.04 | 0.04 | 83 | 967.7 |
| 20260506201542 | 71 | 219 | 3.0 | 10.0 | 0.00 | 0.04 | 0.04 | 84 | 967.8 |
| 20260506201036 | 71 | 240 | 3.0 | 12.0 | 0.00 | 0.04 | 0.04 | 84 | 967.7 |
| 20260506200530 | 71 | 265 | 4.0 | 13.0 | 0.00 | 0.04 | 0.04 | 84 | 967.8 |
| 20260506200024 | 71 | 270 | 4.0 | 13.0 | 0.00 | 0.04 | 0.04 | 84 | 968.0 |
| 20260506195519 | 71 | 215 | 3.0 | 12.0 | 0.00 | 0.04 | 0.04 | 85 | 968.0 |
| 20260506193454 | 70 | 234 | 4.0 | 10.0 | 0.00 | 0.04 | 0.04 | 87 | 968.1 |
| 20260506192443 | 69 | 190 | 2.0 | 16.0 | 0.00 | 0.04 | 0.04 | 88 | 967.8 |
| 20260506191936 | 69 | 221 | 2.0 | 13.0 | 0.00 | 0.04 | 0.04 | 89 | 967.7 |
| 20260506191430 | 69 | 236 | 3.0 | 9.0 | 0.00 | 0.04 | 0.04 | 89 | 967.8 |
| 20260506190925 | 69 | 215 | 3.0 | 9.0 | 0.00 | 0.04 | 0.04 | 90 | 967.8 |
| 20260506190418 | 69 | 229 | 4.0 | 10.0 | 0.00 | 0.04 | 0.04 | 89 | 968.0 |
| 20260506185407 | 69 | 234 | 3.0 | 14.0 | 0.00 | 0.04 | 0.04 | 89 | 967.9 |
| 20260506184901 | 69 | 159 | 4.0 | 12.0 | 0.00 | 0.04 | 0.04 | 89 | 967.9 |
| 20260506184355 | 69 | 174 | 3.0 | 11.0 | 0.00 | 0.04 | 0.04 | 89 | 967.9 |
| 20260506183343 | 68 | 288 | 1.0 | 8.0 | 0.00 | 0.04 | 0.04 | 91 | 967.7 |
| 20260506182841 | 68 | 259 | 2.0 | 8.0 | 0.00 | 0.04 | 0.04 | 90 | 967.7 |
| 20260506182339 | 68 | 193 | 2.0 | 9.0 | 0.00 | 0.04 | 0.04 | 91 | 967.9 |
| 20260506181840 | 68 | 274 | 2.0 | 9.0 | 0.00 | 0.04 | 0.04 | 91 | 968.0 |
| 20260506181339 | 67 | 225 | 2.0 | 9.0 | 0.00 | 0.04 | 0.04 | 92 | 968.2 |
| 20260506180839 | 67 | 141 | 2.0 | 9.0 | 0.00 | 0.04 | 0.04 | 92 | 968.3 |
| 20260506180339 | 66 | 219 | 1.0 | 6.0 | 0.00 | 0.04 | 0.04 | 93 | 968.3 |
| 20260506175840 | 66 | 174 | 1.0 | 4.0 | 0.01 | 0.04 | 0.04 | 93 | 968.3 |
| 20260506175338 | 65 | 178 | 1.0 | 7.0 | 0.01 | 0.04 | 0.04 | 93 | 968.2 |
| 20260506174836 | 65 | 199 | 3.0 | 10.0 | 0.02 | 0.04 | 0.04 | 93 | 968.2 |
| 20260506174337 | 65 | 238 | 4.0 | 12.0 | 0.02 | 0.04 | 0.04 | 92 | 968.2 |
| 20260506173837 | 65 | 173 | 3.0 | 12.0 | 0.02 | 0.04 | 0.04 | 93 | 968.3 |
| 20260506173336 | 65 | 175 | 1.0 | 8.0 | 0.02 | 0.04 | 0.04 | 93 | 968.7 |
| 20260506172335 | 64 | 178 | 0.0 | 5.0 | 0.02 | 0.04 | 0.04 | 93 | 969.2 |
| 20260506171834 | 64 | 250 | 0.0 | 2.0 | 0.02 | 0.04 | 0.04 | 93 | 969.6 |
| 20260506171332 | 64 | 250 | 0.0 | 0.0 | 0.02 | 0.04 | 0.04 | 93 | 969.3 |
| 20260506170832 | 64 | 250 | 0.0 | 0.0 | 0.02 | 0.04 | 0.04 | 93 | 969.5 |
| 20260506170329 | 64 | 250 | 0.0 | 0.0 | 0.02 | 0.04 | 0.04 | 93 | 969.8 |
| 20260506165828 | 64 | 250 | 0.0 | 0.0 | 0.01 | 0.03 | 0.03 | 93 | 970.3 |
| 20260506165327 | 64 | 250 | 0.0 | 1.0 | 0.01 | 0.03 | 0.03 | 93 | 970.1 |
| 20260506164825 | 64 | 250 | 0.0 | 3.0 | 0.00 | 0.02 | 0.02 | 93 | 970.0 |
| 20260506164323 | 64 | 250 | 0.0 | 3.0 | 0.00 | 0.02 | 0.02 | 93 | 970.3 |
| 20260506163821 | 64 | 250 | 0.0 | 2.0 | 0.00 | 0.02 | 0.02 | 93 | 970.3 |
| 20260506163323 | 64 | 250 | 0.0 | 2.0 | 0.01 | 0.02 | 0.02 | 93 | 970.1 |
| 20260506162821 | 64 | 250 | 1.0 | 6.0 | 0.01 | 0.02 | 0.02 | 93 | 970.2 |
| 20260506162320 | 63 | 284 | 1.0 | 6.0 | 0.01 | 0.02 | 0.02 | 93 | 970.5 |
| 20260506161819 | 63 | 317 | 2.0 | 5.0 | 0.02 | 0.02 | 0.02 | 93 | 970.0 |
| 20260506161318 | 63 | 317 | 1.0 | 5.0 | 0.02 | 0.02 | 0.02 | 93 | 970.1 |
| 20260506160317 | 63 | 254 | 0.0 | 0.0 | 0.02 | 0.02 | 0.02 | 93 | 970.1 |
| 20260506155817 | 63 | 254 | 0.0 | 0.0 | 0.02 | 0.02 | 0.02 | 93 | 969.8 |
| 20260506155312 | 63 | 254 | 0.0 | 3.0 | 0.02 | 0.02 | 0.02 | 93 | 969.8 |
| 20260506154813 | 63 | 254 | 0.0 | 3.0 | 0.02 | 0.02 | 0.02 | 93 | 969.7 |
| 20260506154312 | 63 | 286 | 0.0 | 2.0 | 0.02 | 0.02 | 0.02 | 93 | 969.9 |
| 20260506153813 | 63 | 176 | 0.0 | 0.0 | 0.02 | 0.02 | 0.02 | 93 | 969.6 |
| 20260506153312 | 63 | 176 | 0.0 | 0.0 | 0.01 | 0.01 | 0.01 | 92 | 969.3 |
| 20260506152813 | 63 | 176 | 0.0 | 0.0 | 0.01 | 0.01 | 0.01 | 92 | 969.5 |
| 20260506151313 | 63 | 176 | 0.0 | 0.0 | 0.00 | 0.00 | 0.00 | 90 | 969.4 |
| 20260506150812 | 63 | 176 | 0.0 | 0.0 | 0.00 | 0.00 | 0.00 | 90 | 969.4 |
| 20260506150313 | 64 | 176 | 0.0 | 3.0 | 0.00 | 0.00 | 0.00 | 88 | 969.1 |
| 20260506145812 | 64 | 176 | 1.0 | 7.0 | 0.00 | 0.00 | 0.00 | 87 | 968.7 |
| 20260506145313 | 64 | 176 | 0.0 | 7.0 | 0.00 | 0.00 | 0.00 | 86 | 968.5 |
| 20260506144812 | 64 | 182 | 0.0 | 4.0 | 0.00 | 0.00 | 0.00 | 86 | 968.6 |
| 20260506144313 | 64 | 182 | 0.0 | 4.0 | 0.00 | 0.00 | 0.00 | 87 | 968.8 |
| 20260506143813 | 64 | 279 | 0.0 | 2.0 | 0.00 | 0.00 | 0.00 | 86 | 968.7 |
| 20260506143313 | 63 | 279 | 0.0 | 1.0 | 0.00 | 0.00 | 0.00 | 87 | 968.7 |
| 20260506142812 | 63 | 279 | 0.0 | 3.0 | 0.00 | 0.00 | 0.00 | 87 | 968.9 |
| 20260506142313 | 63 | 188 | 0.0 | 3.0 | 0.00 | 0.00 | 0.00 | 88 | 969.1 |
| 20260506141813 | 62 | 187 | 0.0 | 3.0 | 0.00 | 0.00 | 0.00 | 87 | 969.0 |
| 20260506141312 | 62 | 181 | 0.0 | 7.0 | 0.00 | 0.00 | 0.00 | 87 | 969.0 |
| 20260506140812 | 62 | 229 | 0.0 | 7.0 | 0.00 | 0.00 | 0.00 | 87 | 969.2 |
| 20260506140312 | 62 | 246 | 0.0 | 2.0 | 0.00 | 0.00 | 0.00 | 87 | 969.1 |
| 20260506135811 | 62 | 193 | 0.0 | 3.0 | 0.00 | 0.00 | 0.00 | 87 | 969.0 |
| 20260506135311 | 62 | 193 | 0.0 | 3.0 | 0.00 | 0.00 | 0.00 | 87 | 968.7 |
| 20260506134810 | 62 | 298 | 0.0 | 4.0 | 0.00 | 0.00 | 0.00 | 86 | 968.9 |
| 20260506134313 | 62 | 298 | 1.0 | 7.0 | 0.00 | 0.00 | 0.00 | 86 | 968.9 |
| 20260506132806 | 62 | 171 | 1.0 | 6.0 | 0.00 | 0.00 | 0.00 | 86 | 968.8 |
| 20260506132307 | 62 | 186 | 1.0 | 6.0 | 0.00 | 0.00 | 0.00 | 86 | 968.8 |
| 20260506131806 | 62 | 188 | 1.0 | 6.0 | 0.00 | 0.00 | 0.00 | 87 | 968.8 |
| 20260506131307 | 62 | 212 | 1.0 | 5.0 | 0.00 | 0.00 | 0.00 | 87 | 968.9 |
| 20260506130306 | 62 | 222 | 1.0 | 5.0 | 0.00 | 0.00 | 0.00 | 87 | 968.9 |
| 20260506125806 | 62 | 222 | 1.0 | 6.0 | 0.00 | 0.00 | 0.00 | 88 | 969.0 |
| 20260506125305 | 62 | 222 | 1.0 | 7.0 | 0.00 | 0.00 | 0.00 | 88 | 968.9 |
| 20260506124803 | 61 | 240 | 1.0 | 7.0 | 0.00 | 0.00 | 0.00 | 88 | 968.8 |
| 20260506124303 | 61 | 174 | 0.0 | 6.0 | 0.00 | 0.00 | 0.00 | 88 | 968.8 |
| 20260506123802 | 61 | 226 | 0.0 | 1.0 | 0.00 | 0.00 | 0.00 | 88 | 968.6 |
| 20260506123302 | 61 | 202 | 1.0 | 10.0 | 0.00 | 0.00 | 0.00 | 88 | 968.5 |
| 20260506122803 | 60 | 202 | 1.0 | 10.0 | 0.00 | 0.00 | 0.00 | 88 | 968.5 |
| 20260506122305 | 60 | 194 | 1.0 | 4.0 | 0.00 | 0.00 | 0.00 | 88 | 968.6 |
| 20260506120754 | 60 | 157 | 1.0 | 5.0 | 0.00 | 0.00 | 0.00 | 88 | 968.9 |
| 20260506120248 | 60 | 156 | 2.0 | 5.0 | 0.00 | 0.00 | 0.00 | 88 | 968.9 |
| 20260506115742 | 60 | 175 | 2.0 | 5.0 | 0.00 | 0.00 | 0.00 | 88 | 969.0 |
| 20260506114729 | 60 | 174 | 1.0 | 6.0 | 0.00 | 0.00 | 0.00 | 88 | 969.2 |
| 20260506114223 | 60 | 201 | 2.0 | 7.0 | 0.00 | 0.00 | 0.00 | 88 | 969.3 |
| 20260506113717 | 60 | 166 | 2.0 | 7.0 | 0.00 | 0.00 | 0.00 | 88 | 969.1 |
| 20260506112706 | 60 | 177 | 1.0 | 7.0 | 0.00 | 0.00 | 0.00 | 88 | 968.9 |
| 20260506112159 | 60 | 184 | 1.0 | 4.0 | 0.00 | 0.00 | 0.00 | 88 | 968.9 |
| 20260506111654 | 60 | 215 | 1.0 | 4.0 | 0.00 | 0.00 | 0.00 | 87 | 968.9 |
| 20260506111147 | 60 | 182 | 1.0 | 5.0 | 0.00 | 0.00 | 0.00 | 87 | 968.9 |
| 20260506110641 | 60 | 216 | 1.0 | 5.0 | 0.00 | 0.00 | 0.00 | 87 | 968.8 |
| 20260506110136 | 60 | 203 | 1.0 | 4.0 | 0.00 | 0.00 | 0.00 | 87 | 968.7 |
| 20260506105630 | 60 | 206 | 1.0 | 4.0 | 0.00 | 0.00 | 0.00 | 87 | 968.6 |
| 20260506105124 | 60 | 173 | 1.0 | 6.0 | 0.00 | 0.00 | 0.00 | 87 | 968.6 |
| 20260506104617 | 60 | 173 | 2.0 | 8.0 | 0.00 | 0.00 | 0.00 | 87 | 968.6 |
| 20260506104112 | 60 | 207 | 2.0 | 8.0 | 0.00 | 0.00 | 0.00 | 87 | 968.6 |
| 20260506103606 | 60 | 198 | 3.0 | 8.0 | 0.00 | 0.00 | 0.00 | 87 | 968.4 |
| 20260506103059 | 60 | 204 | 3.0 | 8.0 | 0.00 | 0.00 | 0.00 | 87 | 968.4 |
| 20260506102554 | 60 | 186 | 3.0 | 8.0 | 0.00 | 0.00 | 0.00 | 88 | 968.2 |
| 20260506102047 | 59 | 167 | 3.0 | 8.0 | 0.00 | 0.00 | 0.00 | 88 | 968.3 |
| 20260506101542 | 59 | 195 | 2.0 | 6.0 | 0.00 | 0.00 | 0.00 | 88 | 968.2 |
| 20260506101036 | 59 | 196 | 1.0 | 4.0 | 0.00 | 0.00 | 0.00 | 88 | 968.1 |
| 20260506100531 | 59 | 196 | 1.0 | 4.0 | 0.00 | 0.00 | 0.00 | 88 | 968.2 |
| 20260506100023 | 59 | 173 | 1.0 | 7.0 | 0.00 | 0.00 | 0.00 | 88 | 968.2 |
| 20260506095517 | 59 | 221 | 1.0 | 7.0 | 0.00 | 0.00 | 0.00 | 88 | 968.3 |
| 20260506095012 | 59 | 188 | 1.0 | 6.0 | 0.00 | 0.00 | 0.00 | 88 | 968.2 |
| 20260506093959 | 59 | 224 | 1.0 | 4.0 | 0.00 | 0.00 | 0.00 | 87 | 968.3 |
| 20260506093454 | 59 | 224 | 1.0 | 5.0 | 0.00 | 0.00 | 0.00 | 87 | 968.4 |
| 20260506092948 | 59 | 225 | 1.0 | 5.0 | 0.00 | 0.00 | 0.00 | 87 | 968.1 |
| 20260506092442 | 59 | 238 | 1.0 | 5.0 | 0.00 | 0.00 | 0.00 | 87 | 968.2 |
| 20260506091936 | 59 | 194 | 1.0 | 5.0 | 0.00 | 0.00 | 0.00 | 87 | 968.3 |
| 20260506091430 | 60 | 199 | 0.0 | 3.0 | 0.00 | 0.00 | 0.00 | 87 | 968.4 |
| 20260506090924 | 60 | 189 | 0.0 | 3.0 | 0.00 | 0.00 | 0.00 | 86 | 968.6 |
| 20260506090417 | 60 | 186 | 1.0 | 3.0 | 0.00 | 0.00 | 0.00 | 86 | 968.6 |
| 20260506084354 | 60 | 223 | 0.0 | 4.0 | 0.00 | 0.00 | 0.00 | 85 | 968.5 |
| 20260506083848 | 60 | 185 | 0.0 | 5.0 | 0.00 | 0.00 | 0.00 | 85 | 968.4 |
| 20260506082836 | 60 | 208 | 1.0 | 7.0 | 0.00 | 0.00 | 0.00 | 85 | 968.7 |
| 20260506082329 | 61 | 215 | 1.0 | 4.0 | 0.00 | 0.00 | 0.00 | 84 | 968.6 |
| 20260506081826 | 61 | 165 | 1.0 | 6.0 | 0.00 | 0.00 | 0.00 | 84 | 968.7 |
| 20260506081326 | 61 | 165 | 1.0 | 8.0 | 0.00 | 0.00 | 0.00 | 84 | 968.8 |
| 20260506080826 | 61 | 165 | 1.0 | 8.0 | 0.00 | 0.00 | 0.00 | 84 | 968.7 |
| 20260506080327 | 61 | 198 | 1.0 | 5.0 | 0.00 | 0.00 | 0.00 | 83 | 968.7 |
| 20260506073320 | 62 | 223 | 1.0 | 4.0 | 0.00 | 0.00 | 0.00 | 82 | 968.7 |
| 20260506071817 | 62 | 186 | 0.0 | 4.0 | 0.00 | 0.00 | 0.00 | 81 | 968.8 |
| 20260506071316 | 61 | 211 | 0.0 | 3.0 | 0.00 | 0.00 | 0.00 | 81 | 969.0 |
| 20260506070313 | 61 | 211 | 0.0 | 3.0 | 0.00 | 0.00 | 0.00 | 81 | 969.0 |
| 20260506062306 | 62 | 249 | 1.0 | 5.0 | 0.00 | 0.00 | 0.00 | 79 | 968.9 |
| 20260506061805 | 62 | 250 | 0.0 | 3.0 | 0.00 | 0.00 | 0.00 | 78 | 969.0 |